Location: Asheville, NC
(35.6000°N, 82.5500°W)
Time: 16:34:12
(UTC-04:00)

ISS - Pass Details

Date: 08 May 2026
Orbit: 414 x 424 km, 51.6° (Epoch: 15 May)

Event Time Altitude Azimuth Distance (km) Brightness Sun altitude
Rises 21:00:37 0° 211° (SSW) 2,329 0.1 -7.8°
Reaches altitude 10° 21:02:46 10° 204° (SSW) 1,471 -1.0 -8.2°
Maximum altitude 21:05:52 40° 133° (SE) 624 -3.4 -8.8°
Drops below altitude 10° 21:09:00 10° 63° (ENE) 1,480 -1.3 -9.3°
Sets 21:11:10 0° 55° (NE) 2,346 -0.2 -9.7°
